Back to catalog

SCOUT X-4 R/B

AliveLEO
NORAD 871·ROCKET BODY·🇺🇸 United States

Launched Aug 25, 1964 from Vandenberg Space Force Base

Loading…

Next Passes (next 24 hours)

TLE

FreshSource: Space-Track

Epoch: Sep 14, 2026, 14:40 UTC

1 00871U 64051B   26257.61163439  .00000195  00000-0  12230-3 0  9993
2 00871  79.8960 329.0025 0085130 266.9488  92.1930 14.00720179157387

Track SCOUT X-4 R/B in real time with AllMySat

Download on the App Store